Miscellaneous Local Product
Issued by NWS North Platte, NE

Home | Current Version | Previous Version | Text Only | Print | Product List | Glossary On
Versions: 1 2 3 4 5 6 7 8 9 10 11 12 13 14 15 16 17 18 19 20 21 22 23 24 25 26 27 28 29 30 31 32 33 34 35 36 37 38 39 40 41 42 43 44 45 46 47 48 49 50
000
AXUS43 KLBF 220510
MISLBF


WESTERN AND NORTH CENTRAL NEBRASKA HOURLY WEATHER ROUNDUP
NATIONAL WEATHER SERVICE NORTH PLATTE NE
1100 PM CST FRI NOV 21 2014

***STATIONS NOT REPORTING VARIABLES SUCH AS SKY/WEATHER OR
PRESSURE ARE PROVIDED BY THE NEBRASKA DEPARTMENT OF
ROADS...RAWS...AND APRS NETWORKS...AND ARE NOT UNDER
NATIONAL WEATHER SERVICE QUALITY CONTROL***

...OBSERVATIONS IN AND NEAR THE EASTERN PANHANDLE OF NEBRASKA...

CITY           SKY/WX    TMP DP  RH WIND       PRES   REMARKS
PINE RIDGE     CLEAR     19  17  92 E3        29.84F
CHADRON        CLEAR     25  22  88 W5        29.85F WCI  19
ALLIANCE       CLEAR     22  16  78 CALM      29.87F
SIDNEY         CLEAR     25  16  68 NW6       29.92S WCI  18
WHITECLAY        N/A     24  20  85 SE5         N/A  WCI  18
LISCO            N/A     24  17  74 CALM        N/A
BIG SPRINGS      N/A     25  19  76 W3          N/A
LEWELLEN         N/A     16  10  79 CALM        N/A
$$

...OBSERVATIONS IN NORTH CENTRAL NEBRASKA...

CITY           SKY/WX    TMP DP  RH WIND       PRES   REMARKS
VALENTINE      CLEAR     27  24  89 W5        29.84F WCI  22
THEDFORD       CLEAR     33  28  82 CALM      29.87F
AINSWORTH      CLEAR     36  28  72 SW10      29.84F WCI  28
O`NEILL        CLEAR     36  32  86 S8        29.87F WCI  29
ORD            CLEAR     34  28  79 S8        29.91S WCI  27
BROKEN BOW     CLEAR     32  26  78 SW8       29.90F WCI  25
BROWNLEE         N/A     35  23  61 S5          N/A  WCI  31
BREWSTER         N/A     36  28  75 CALM        N/A
COMSTOCK         N/A     37  32  82 S8          N/A  WCI  30
$$

...OBSERVATIONS IN SOUTHWEST NEBRASKA AND FAR NORTHEAST COLORADO...

CITY           SKY/WX    TMP DP  RH WIND       PRES   REMARKS
WRAY           FAIR      30  18  60 SW6       29.94S WCI  24
HOLYOKE        FAIR      28  18  64 W8        29.92S WCI  20
IMPERIAL       PTCLDY    30  22  72 W8        29.92R WCI  22
OGALLALA       CLEAR     23  19  86 W6        29.90S WCI  16
NORTH PLATTE   CLEAR     29  24  82 CALM      29.91S
MCCOOK         CLEAR     34  32  92 SW7       29.93R WCI  28
LEXINGTON      CLEAR     35  32  89 S7        29.93S WCI  29
PAXTON           N/A     31  24  75 CALM        N/A
GOTHENBURG       N/A     37  32  83 S6          N/A  WCI  32
CALLAWAY         N/A     34  31  88 S14         N/A  WCI  25
$$

...SOME WEATHER OBSERVATIONS FROM AROUND THE REGION...

CITY           SKY/WX    TMP DP  RH WIND       PRES   REMARKS
DENVER         PTCLDY    40  22  48 SW12      29.96F WCI  33
LARAMIE        CLEAR     27  16  63 SE7       29.95F WCI  19
CHEYENNE       CLEAR     31  17  56 W8        29.94F WCI  23
SCOTTSBLUFF    CLEAR     26  18  71 CALM      29.89S
RAPID CITY     CLEAR     35  22  58 S6        29.80F WCI  30
PIERRE         CLEAR     32  27  81 SW8       29.79F WCI  25
WINNER         FAIR      41  29  62 SW8       29.82F
SIOUX FALLS    CLOUDY    35  29  78 S12       29.86F WCI  27
OMAHA          DRIZZLE   36  35  96 S13       30.00F FOG     WCI  27
GRAND ISLAND   CLOUDY    39  35  86 S10       29.95R FOG     WCI  32
KANSAS CITY    CLOUDY    48  46  93 S12       30.03F
WICHITA        FOG       43  43 100 SW6       30.04S VSB 1/8
HAYS           CLOUDY    34  27  75 SE3       29.99F VSB 1/4
LIBERAL        MOCLDY    37  30  75 S5        30.01S WCI  34
GOODLAND       MOCLDY    33  22  63 W12       29.94S WCI  24
$$



USA.gov is the U.S. government's official web portal to all federal, state and local government web resources and services.